Weather in Oskino

Russia / Tomsk District     56°30′44″N   84°09′08″E
temp.,
°C
wind,
m/s
gust,
m/s
humid.,
%
clouds,
%
prec.,
mm/h
press.,
hPa
HPBL,
m
21 june, mon
mon2101:00+7s311875 0.1 1008280
04:00+6se38989 0.0 1008201
07:00+9se377713 0.0 1008270
10:00+15se45536 0.0 1007881
13:00+19se5639100 0.0 10062455
16:00+14sse3660100 0.0 1007857
19:00+10e2498100 1.9 1008233
22:00+10ene2599100 0.8 1008205
22 june, tue
tue2201:00+10ene139996 0.9 1008198
04:00+9ne129955 0.1 100769
07:00+10ne239772 0.1 1007236
10:00+14nne2375100 0.1 1007844
13:00+14n4582100 0.8 1007630
16:00+11nne2698100 5.9 1008439
19:00+11n2499100 15.6 1008158
22:00+10n3799100 2.7 1009355
23 june, wed
wed2301:00+9nnw3999100 3.8 1009609
04:00+8nnw3898100 0.8 1010448
07:00+8nw369838 1.1 1011429
10:00+11wnw238292 0.5 1012923
13:00+14wsw235756 1.1 10121264
16:00+15w244899 0.1 10111743
19:00+13se227734 0.4 101270
22:00+9se22925 0.6 101114
24 june, thu
thu2401:00+8e2297100 0.6 101041
04:00+7ene2498100 0.0 100990
07:00+9ene2697100 0.0 1008200
10:00+14ene3670100 0.0 1006738
13:00+17ene5857100 0.1 10051775
16:00+12ne2596100 1.6 1006225
19:00+12ene2596100 2.2 1006364
22:00+10ene269963 0.8 1006166
25 june, fri
fri2501:00+8se259814 0.9 1006102
04:00+8e2698100 0.0 1006202
07:00+9e3698100 0.1 1006371
10:00+9e3798100 0.5 1007475
13:00+11e259698 1.3 1007472
16:00+11e3495100 1.4 1007352
19:00+11nne1197100 1.7 1008156
22:00+10sw1198100 0.1 100829